This demonstration page uses our WeatherBlox Daily Observations layout. Learn more.

Left ArrowRight Arrow

40.92501, -98.34201

Hourly Observations for August 11, 2020

Temp ( °F °C ) Dew Point ( °F °C ) Humidity (%) Winds ( mph kmh ) Pressure ( in mb ) Visibility ( mi km ) Precip ( " mm )
12:53 am 00:53 Clear 65 18.3 61 16.1 87 87 Calm 29.99 1016 10 16 0.00 0.00
1:53 am 01:53 Clear 64 17.8 60 15.6 87 87 NE 5 7 29.99 1016 10 16 0.00 0.00
2:53 am 02:53 Clear 65 18.3 60 15.6 84 84 Calm 29.99 1016 10 16 0.00 0.00
3:53 am 03:53 Mostly Cloudy 65 18.3 60 15.6 84 84 ESE 3 6 29.99 1016 10 16 0.00 0.00
4:53 am 04:53 Clear 65 18.3 60 15.6 84 84 ESE 3 6 29.98 1015 10 16 0.00 0.00
5:53 am 05:53 Clear 62 16.7 59 15 90 90 ENE 5 7 29.98 1015 8 13 0.00 0.00
6:53 am 06:53 Sunny with Mist and Fog 62 16.7 59 15 90 90 ENE 3 6 29.99 1016 5 8 0.00 0.00
7:53 am 07:53 Sunny 65 18.3 61 16.1 87 87 Calm 29.99 1016 7 11 0.00 0.00
8:53 am 08:53 Sunny 71 21.7 64 17.8 79 79 SE 8 13 29.99 1016 10 16 0.00 0.00
9:53 am 09:53 Sunny 75 23.9 67 19.4 76 76 SSE 13 20 29.99 1016 10 16 0.00 0.00
10:53 am 10:53 Partly Cloudy 80 26.7 70 21.1 71 71 SSE 10 17 29.98 1015 10 16 0.00 0.00
11:53 am 11:53 Partly Cloudy 83 28.3 70 21.1 65 65 SSE 10 17 29.97 1015 10 16 0.00 0.00
12:53 pm 12:53 Partly Cloudy 85 29.4 68 20 57 57 SSE 10 17 29.95 1014 10 16 0.00 0.00
1:53 pm 13:53 Mostly Sunny 87 30.6 68 20 53 53 SSE 13 20 29.95 1014 10 16 0.00 0.00
2:53 pm 14:53 Mostly Sunny 88 31.1 68 20 52 52 SSE 15 24 29.93 1013 10 16 0.00 0.00
3:53 pm 15:53 Sunny 90 32.2 68 20 48 48 SSE 14 22 29.90 1013 10 16 0.00 0.00
4:53 pm 16:53 Sunny 88 31.1 67 19.4 50 50 SSE 12 19 29.90 1012 10 16 0.00 0.00
5:53 pm 17:53 Sunny 87 30.6 66 18.9 50 50 SE 17 28 29.90 1013 10 16 0.00 0.00
6:53 pm 18:53 Sunny 85 29.4 66 18.9 53 53 SE 13 20 29.88 1012 10 16 0.00 0.00
7:53 pm 19:53 Sunny 82 27.8 68 20 63 63 SSE 10 17 29.88 1012 10 16 0.00 0.00
8:53 pm 20:53 Clear 81 27.2 68 20 65 65 SSE 10 17 29.88 1012 10 16 0.00 0.00
9:53 pm 21:53 Clear 79 26.1 69 20.6 72 72 S 8 13 29.93 1014 10 16 0.00 0.00
10:53 pm 22:53 Mostly Clear 79 26.1 68 20 69 69 SSE 8 13 29.93 1014 10 16 0.00 0.00
11:53 pm 23:53 Clear 80 26.7 66 18.9 62 62 S 18 30 29.89 1012 10 16 0.00 0.00

Powered by AerisWeather